Hourly Data Report for September 08, 2017

All times are specified in Local Standard Time (LST). Add 1 hour to adjust for Daylight Saving Time where and when it is observed.

EAST POINT (AUT)
PRINCE EDWARD ISLAND

46°27'36.000" N
61°59'18.000" W
7.70 m
8300418
71412
WEP

Download Data

Hourly Data (September 2017)
Hourly Data Report for September 8, 2017
Temp Definition
°C
Dew Point Temp Definition
°C
Rel Hum Definition
%
Wind Dir Definition
10's deg

Wind Spd Definition
km/h
Visibility Definition
km
Stn Press Definition
kPa
Hmdx Definition


Wind Chill Definition


Weather Definition


TIME
00:00 18.1 16.6 91 19 22   100.93     LegendNANA
01:00 17.9 16.4 91 20 23   100.93     LegendNANA
02:00 17.7 15.9 90 20 22   100.91     LegendNANA
03:00 17.4 15.6 89 21 22   100.96     LegendNANA
04:00 16.7 15.0 90 21 17   100.95     LegendNANA
05:00 15.5 13.4 87 22 16   100.97     LegendNANA
06:00 15.6 13.3 87 22 18   101.05     LegendNANA
07:00 16.2 13.7 85 22 19   101.13     LegendNANA
08:00 18.8 15.7 82 21 20   101.18     LegendNANA
09:00 18.8 15.5 81 20 23   101.22     LegendNANA
10:00 19.3 15.8 80 20 22   101.26     LegendNANA
11:00 20.2 16.5 79 18 24   101.30 25   LegendNANA
12:00 22.0 15.2 66 22 18   101.31 26   LegendNANA
13:00 21.0 15.9 73 20 21   101.34 26   LegendNANA
14:00 20.0 14.9 72 36 9   101.38     LegendNANA
15:00 19.8 15.5 76 6 10   101.43     LegendNANA
16:00 20.0 14.7 71 1 8   101.48     LegendNANA
17:00 19.4 15.1 76 4 7   101.55     LegendNANA
18:00 18.4 15.2 82 8 7   101.58     LegendNANA
19:00 18.1 16.1 88 7 9   101.63     LegendNANA
20:00 17.2 15.2 88 12 10   101.72     LegendNANA
21:00 16.1 14.2 88 15 4   101.75     LegendNANA
22:00 15.3 13.6 90 15 6   101.77     LegendNANA
23:00 15.1 14.1 94 18 8   101.80     LegendNANA

Notes on Data Quality.

Legend

  • E = Estimated
  • M = Missing
  • NA = Not Available
  • ‡ = Partner data that is not subject to review by the National Climate Archives
Date modified: